Weather in Kudeikha

Russia / Chuvash Republic     55°13′38″N   46°25′17″E
temp.,
°C
wind,
m/s
gust,
m/s
humid.,
%
clouds,
%
prec.,
mm/h
press.,
hPa
HPBL,
m
23 october, sat
sat2300:00+9wsw513771 0.1 1004630
03:00+8wsw5138027 0.1 1005666
06:00+6wsw4117613 0.0 1006456
09:00+8sw51274100 0.0 1007873
12:00+10wsw611575 0.0 10081452
15:00+10sw611525 0.0 10081373
18:00+7ssw39645 0.0 1009188
21:00+6s387170 0.0 1009154
24 october, sun
sun2400:00+6wsw3969100 0.0 1009368
03:00+4wsw410865 0.0 1009340
06:00+3wsw410935 0.0 1009302
09:00+4wsw5108394 0.0 1010565
12:00+4w5876100 0.0 10121006
15:00+5wsw4866100 0.1 1012942
18:00+5wsw4877100 0.1 1012595
21:00+4wsw4794100 0.9 1012689
25 october, mon
mon2500:00+3wsw3697100 0.1 1012653
03:00+3wnw4897100 0.9 1013586
06:00+1nnw61294100 0.6 1016738
09:00+1nnw6107887 0.8 1020964
12:00+3nnw69585 0.0 10221055
15:00+3nw48565 0.0 10241019
18:000wnw38728 0.0 1026204
21:00−1w3777100 0.0 1027213
26 october, tue
tue2600:000sw3107272 0.0 1027336
03:000sw5136787 0.0 1025503
06:000sw5146860 0.0 1024545
09:00+2wsw6136624 0.0 1023637
12:00+5wsw61160100 0.0 1022786
15:00+5wsw61261100 0.0 1021793
18:00+4wsw6136535 0.0 1021622
21:00+3wsw51368100 0.0 1021511
27 october, wed
wed2700:00+2wsw51269100 0.0 1020474
03:00+2wsw5126878 0.0 1020473
06:00+1sw4127397 0.0 1019419
09:00+3sw5136697 0.0 1019535
12:00+6sw6135327 0.0 1017745
15:00+7sw613505 0.0 1016857
18:00+5sw61452100 0.0 1015671
21:00+5sw61551100 0.0 1014733